CZ-4B R/B, 40337

Orbit data source: Space-Track

CZ-4B R/B, 40337 is space debris in SSO originally from a launch on Sun, 07 Dec 2014 UTC launched from the Taiyaun Space Center, China (TSC). Debris objects in space refer to the collection of defunct objects orbiting the Earth. Examples of debris include non-operational satellites, rocket bodies, and fragments generated from explosions, collisions, or faulty payload assembly.

Loading next visibility...
Identifier
40337, 2014-079B
Orbit
SSO
Country
Flag of CNCN / PRC
Related business
Manufacturer
SAST
Mission
Spacecraft
Bus & Motor
CZ-4 STAGE 3, Unknown motor
Mass
~1,000 kg wet, ~1,000 kg dry
Launch date (UTC)
2014-12-07 (12 years ago)
Launch vehicle
Unknown
Launch site
Taiyaun Space Center, China (TSC)
Object type
Payload
Rocket body
Debris
Shape & HBR
Cyl, 2.5 m
Radar Cross Section
14.536 m², Large (>1 m²)

Expand to show TLE details & history
Last TLE update: 2 days ago

TLE from 2 days ago
0 CZ-4B R/B
1 40337U 14079B   26171.25657177  .00001459  00000-0  86308-4 0  9993
2 40337  98.4660 266.9145 0140290 328.2771  31.0055 15.05596504628180
Epoch: 2026-06-20T06:09Z
TLE epoch observation values (Epoch: 2026-06-20T06:09:27.800Z)
Latitude
-0.00005°
Longitude
-93.92513°
Altitude
469.762 km
Speed
7.677 km/s
True Right ascension
17h 47m 39s
True Declination
0° 00' 00"
Sunlit
Object was in full shadow at epoch
Visualization orbit readout
Latitude
Unknown
Longitude
Unknown
Altitude
Unknown
Speed
Unknown
Apparent Right ascension
Unknown
Apparent Declination
Unknown
Sunlit
N/A
Visualization observer readout
Local Sidereal Time
21:35:07
Azimuth
Unknown
Elevation
Unknown
Doppler factor
Unknown
Orbital elements
Apogee altitude
643.856 km
Perigee altitude
449.559 km
Semi-major axis
6,924.845 km
Eccentricity
0.01403
Inclination
98.466°
RAAN
266.9145°
Arg. of periapsis
328.2771°
True anomaly
31.84621°
Mean anomaly
31.0055°
Eccentric anomaly
31.42458°
Mean motion
3.76641 °/min
Orbital period
95.58 mins
BSTAR
0.000086308
Loading maneuver chart data...
Computing Atmospheric mass density...
Loading historical data...
Loading historical data...
Loading historical data...
Loading historical data...
Loading historical data...
Loading historical data...
Loading historical data...
Other satellites on launch #79 in the year 2014 (2014-12-07 UTC)

Documentation

Showing up to 5 results
|